Weather History for Middlesboro, KY

Change the Weather History Date:

Thursday, December 6, 2012

  Actual Average (KLOZ) Record (KLOZ)
Temperature  
Mean Temperature 42 °F 41 °F  
Max Temperature 53 °F 50 °F 74 °F (1998)
Min Temperature 32 °F 31 °F 5 °F (1977)
Degree Days  
Heating Degree Days 22 24  
Month to date heating degree days 141  
Since 1 July heating degree days 971  
Cooling Degree Days 0 0  
Month to date cooling degree days 0  
Moisture  
Dew Point 44 °F    
Average Humidity 87    
Maximum Humidity 100    
Minimum Humidity 67    
Precipitation  
Precipitation 0.00 in 0.15 in 2.05 in (2013)
Month to date precipitation 0.86  
Sea Level Pressure  
Sea Level Pressure 30.13 in    
Wind  
Wind Speed 1 mph (SSW)    
Max Wind Speed 6 mph    
Max Gust Speed -    
Visibility 10 miles    
Events Rain    
T = Trace of Precipitation, MM = Missing Value Source: NWS Daily Summary

Daily Weather History Graph

Daily Weather History Graph

Search for Another Location

Airport:

Trip Planner

Search our weather history database for the weather conditions in past years. The results will help you decide how hot, cold, wet, or windy it might be!

Date:

Astronomy

Dec. 06, 2012 Rise Set
Actual Time 6:33 AM CST 4:18 PM CST
Civil Twilight 6:04 AM CST 4:47 PM CST
Nautical Twilight 5:32 AM CST 5:19 PM CST
Astronomical Twilight 5:01 AM CST 5:51 PM CST
Moon No Moon Rise 11:34 AM CST (12/6)
Length of Visible Light 10h 42m
Length of Day
9h 45m
Waning Gibbous, 49% of the Moon is Illuminated
Dec 6
Waning Gibbous
Dec 13
New
Dec 19
First Quarter
Dec 28
Full
Jan 4
Last Quarter

Hourly Weather History & Observations

Time (CST) Temp. Dew Point Humidity Pressure Visibility Wind Dir Wind Speed Gust Speed Precip Events Conditions
12:15 AM 32.0 °F 30.2 °F 93% 30.20 in 10.0 mi Calm Calm - N/A   Clear
7:35 AM 37.4 °F 37.4 °F 100% 30.18 in 10.0 mi Calm Calm - N/A   Overcast
7:55 AM 39.2 °F 37.4 °F 93% 30.18 in 10.0 mi Calm Calm - N/A   Overcast
8:15 AM 39.2 °F 39.2 °F 100% 30.18 in 10.0 mi Calm Calm - N/A   Overcast
8:35 AM 42.8 °F 41.0 °F 93% 30.18 in 10.0 mi Calm Calm - N/A   Overcast
9:15 AM 44.6 °F 42.8 °F 93% 30.18 in 10.0 mi Calm Calm - N/A   Overcast
9:35 AM 46.4 °F 44.6 °F 93% 30.18 in 10.0 mi Calm Calm - N/A   Overcast
9:55 AM 48.2 °F 44.6 °F 87% 30.18 in 10.0 mi Calm Calm - N/A   Overcast
10:15 AM 48.2 °F 42.8 °F 82% 30.18 in 10.0 mi Calm Calm - N/A   Overcast
10:35 AM 51.8 °F 44.6 °F 76% 30.17 in 10.0 mi Calm Calm - N/A   Overcast
10:55 AM 51.8 °F 42.8 °F 71% 30.16 in 10.0 mi Calm Calm - N/A   Overcast
11:15 AM 53.6 °F 42.8 °F 67% 30.15 in 10.0 mi South 5.8 mph - N/A   Overcast
11:35 AM 53.6 °F 42.8 °F 67% 30.15 in 10.0 mi SE 3.5 mph - N/A   Overcast
11:55 AM 51.8 °F 42.8 °F 71% 30.14 in 10.0 mi SSE 4.6 mph - N/A   Overcast
12:15 PM 51.8 °F 42.8 °F 71% 30.14 in 10.0 mi SSE 3.5 mph - N/A   Overcast
12:35 PM 51.8 °F 42.8 °F 71% 30.13 in 10.0 mi ESE 4.6 mph - N/A   Overcast
12:55 PM 51.8 °F 42.8 °F 71% 30.13 in 10.0 mi Calm Calm - N/A Rain Light Rain
1:15 PM 53.6 °F 44.6 °F 72% 30.12 in 10.0 mi Calm Calm - N/A   Overcast
1:35 PM 53.6 °F 44.6 °F 72% 30.12 in 10.0 mi Calm Calm - N/A   Overcast
1:55 PM 53.6 °F 44.6 °F 72% 30.12 in 10.0 mi Calm Calm - N/A   Mostly Cloudy
2:15 PM 53.6 °F 44.6 °F 72% 30.13 in 10.0 mi Calm Calm - N/A   Light Drizzle
2:35 PM 51.8 °F 46.4 °F 82% 30.13 in 5.0 mi SSE 3.5 mph - N/A Rain Rain
2:55 PM 50.0 °F 46.4 °F 87% 30.13 in 10.0 mi Calm Calm - N/A Rain Light Rain
3:15 PM 51.8 °F 48.2 °F 88% 30.13 in 10.0 mi South 3.5 mph - N/A   Overcast
3:35 PM 51.8 °F 46.4 °F 82% 30.13 in 10.0 mi South 3.5 mph - N/A   Overcast
3:55 PM 50.0 °F 46.4 °F 87% 30.13 in 10.0 mi Calm Calm - N/A   Overcast
4:15 PM 50.0 °F 46.4 °F 87% 30.13 in 10.0 mi Calm Calm - N/A   Overcast
4:35 PM 50.0 °F 46.4 °F 87% 30.13 in 10.0 mi Calm Calm - N/A   Overcast
4:55 PM 50.0 °F 44.6 °F 82% 30.13 in 10.0 mi Calm Calm - N/A   Overcast
5:15 PM 50.0 °F 44.6 °F 82% 30.13 in 10.0 mi Calm Calm - N/A   Overcast
5:35 PM 48.2 °F 46.4 °F 93% 30.12 in 10.0 mi West 3.5 mph - N/A   Overcast
5:55 PM 48.2 °F 46.4 °F 93% 30.12 in 10.0 mi Calm Calm - N/A   Overcast
6:15 PM 48.2 °F 46.4 °F 93% 30.12 in 10.0 mi WSW 3.5 mph - N/A   Mostly Cloudy
6:35 PM 48.2 °F 46.4 °F 93% 30.13 in 10.0 mi WSW 4.6 mph - N/A   Overcast
6:55 PM 48.2 °F 46.4 °F 93% 30.13 in 10.0 mi WSW 3.5 mph - N/A   Overcast
7:15 PM 50.0 °F 44.6 °F 82% 30.12 in 10.0 mi West 3.5 mph - N/A   Mostly Cloudy
7:35 PM 50.0 °F 46.4 °F 87% 30.12 in 10.0 mi WSW 3.5 mph - N/A   Mostly Cloudy
7:55 PM 48.2 °F 46.4 °F 93% 30.11 in 10.0 mi Calm Calm - N/A   Scattered Clouds
8:35 PM 48.2 °F 46.4 °F 93% 30.11 in 10.0 mi Calm Calm - N/A   Overcast
8:55 PM 48.2 °F 46.4 °F 93% 30.11 in 10.0 mi Calm Calm - N/A   Overcast
9:15 PM 48.2 °F 46.4 °F 93% 30.11 in 10.0 mi Calm Calm - N/A   Overcast
9:35 PM 48.2 °F 46.4 °F 93% 30.10 in 10.0 mi Calm Calm - N/A   Overcast
9:55 PM 46.4 °F 46.4 °F 100% 30.10 in 10.0 mi Calm Calm - N/A   Scattered Clouds
10:15 PM 46.4 °F 46.4 °F 100% 30.10 in 10.0 mi Calm Calm - N/A   Scattered Clouds
10:35 PM 44.6 °F 44.6 °F 100% 30.09 in 10.0 mi Calm Calm - N/A   Clear
10:55 PM 44.6 °F 44.6 °F 100% 30.09 in 10.0 mi Calm Calm - N/A   Clear
11:15 PM 44.6 °F 44.6 °F 100% 30.08 in 10.0 mi Calm Calm - N/A   Clear
11:35 PM 44.6 °F 44.6 °F 100% 30.09 in 10.0 mi Calm Calm - N/A   Mostly Cloudy
11:55 PM 44.6 °F 44.6 °F 100% 30.08 in 10.0 mi Calm Calm - N/A   Overcast